Piedmont Triad International Airport
KGSO : now visible

Airfield :











YOU CAN JOIN US ON...

 
LOGIN :

Register | Disclaimer

   EN    FR    IT 

 









Legend :    VFR   Marginal VFR   IFR   Intensive IFR   Very Intensive IFR
Visi :
Ceiling :
>= 8 km
>= 3000ft
5 to 8 km
1000 to 3000 ft
1500m to 5 km
500 to 1000 ft
800 to 1500m
200 to 500 ft
< 800m
< 200 ft
Symbols :   Thunderstorms  Fog  Heavy snow  Heavy precipitations  Wind > 20 kt






- Airport Elevation : 925 ft
- IATA code : GSO


KGSO - Piedmont Triad International

CURRENT METAR :
  • 030054Z 31006KT 10SM CLR 11/00 A2995 RMK AO2 SLP141 T01110000

EXPIRED METARs :
  • 022354Z 32010KT 10SM CLR 14/M01 A2993 RMK AO2 SLP134 T01441006 10183 20144 53008

TAF KGSO
Valid from the 03 at 00:00 until the 04 at 00:00 UTC


022335Z 0300/0324 32011G18KT P6SM SKC
FM031000 32008KT P6SM SKC
FM031400 31015G25KT P6SM FEW250



MET'MAP, your aeronautical weather chart ! - Copyright ORBIFLY December 2007 - Disclaimer

ORBIFLY MET'MAP TEAM :

Programming & Development : Alexandra Zaïnal
Concept & original design : Baudouin d'Aumeries
Assistance for programming : Marc-Olivier Méhu
Technical & hardware support : Manuel Goepfert

Contact : metmap@orbifly.com




SOURCES & CREDITS :

   NOAA       Earth
Advisory